Retour au catalogue

SL-14 R/B

ActifPO
NORAD 18313·ROCKET BODY·🇷🇺 Russia

Lancé Aug 18, 1987 depuis Plesetsk Cosmodrome

Loading…

Prochains Passages (prochaines 24 heures)

TLE

FraisSource: Space-Track

Époque: Sep 14, 2026, 22:36 UTC

1 18313U 87068B   26257.94186038  .00000014  00000-0 -67841-6 0  9994
2 18313  82.5555 230.6926 0010045 173.6236 186.5054 13.84310360974192

Suivez SL-14 R/B en temps réel avec AllMySat

Download on the App Store